This is the latest recevied weather packets stored in our database for station/object N4PWG. If no packets are shown the sender has not sent any weather packets the latest 10 day(s).
| Time | Temp. | Humidity | Pressure | Rain* | Wind** | Luminosity | Snow |
|---|---|---|---|---|---|---|---|
| 1777686212 | 12.22° C | 62% | 1034.5 hPa | 0 mm | - | 0 W/m² | - |
| 1777685908 | 12.78° C | 62% | 1034.4 hPa | 0 mm | - | 0 W/m² | - |
| 1777685604 | 12.78° C | 66% | 1034.2 hPa | 0 mm | - | 0 W/m² | - |
| 1777685301 | 12.22° C | 63% | 1034.5 hPa | 0 mm | - | 0 W/m² | - |
| 1777684999 | 12.78° C | 66% | 1034.2 hPa | 0 mm | - | 0 W/m² | - |
| 1777684696 | 12.78° C | 60% | 1034 hPa | 0 mm | - | 0 W/m² | - |
| 1777684392 | 13.33° C | 58% | 1034.1 hPa | 0 mm | - | 0 W/m² | - |
| 1777684089 | 13.89° C | 55% | 1034 hPa | 0 mm | - | 0 W/m² | - |
| 1777683785 | 13.89° C | 55% | 1033.9 hPa | 0 mm | - | 0 W/m² | - |
| 1777683482 | 13.89° C | 54% | 1033.9 hPa | 0 mm | - | 0 W/m² | - |
| 1777683180 | 14.44° C | 54% | 1033.4 hPa | 0 mm | - | 0 W/m² | - |
| 1777682877 | 15° C | 51% | 1033.7 hPa | 0 mm | - | 0 W/m² | - |
| 1777682573 | 15° C | 52% | 1033.4 hPa | 0 mm | - | 1 W/m² | - |
| 1777682271 | 15° C | 51% | 1033.8 hPa | 0 mm | - | 4 W/m² | - |
| 1777681968 | 15.56° C | 52% | 1033.5 hPa | 0 mm | - | 7 W/m² | - |
| 1777681664 | 15.56° C | 51% | 1033.4 hPa | 0 mm | - | 10 W/m² | - |
| 1777681362 | 15.56° C | 49% | 1033.4 hPa | 0 mm | - | 14 W/m² | - |
| 1777681058 | 15.56° C | 46% | 1033.2 hPa | 0 mm | - | 16 W/m² | - |
| 1777680757 | 15.56° C | 46% | 1033.1 hPa | 0 mm | - | 17 W/m² | - |
| 1777680454 | 16.11° C | 48% | 1032.9 hPa | 0 mm | - | 23 W/m² | - |
| 1777680152 | 16.11° C | 46% | 1032.7 hPa | 0 mm | - | 26 W/m² | - |
| 1777679852 | 16.67° C | 47% | 1032.8 hPa | 0 mm | - | 27 W/m² | - |
| 1777679549 | 16.67° C | 44% | 1032.6 hPa | 0 mm | - | 34 W/m² | - |
| 1777679245 | 16.67° C | 43% | 1032.6 hPa | 0 mm | - | 44 W/m² | - |
| 1777678942 | 17.22° C | 42% | 1032.7 hPa | 0 mm | - | 48 W/m² | - |
* Rain latest hour (hover to see other rain measurements)
** Current wind speed in m/s (hover to see current wind gust speed)